TimeEST,TemperatureF,Dew PointF,Humidity,Sea Level PressureIn,VisibilityMPH,Wind Direction,Wind SpeedMPH,Gust SpeedMPH,PrecipitationIn,Events,Conditions,WindDirDegrees,DateUTC
12:53 AM,48.9,44.1,83,30.28,10.0,NE,5.8,-,N/A,,Clear,50,2013-02-02 05:53:00
1:53 AM,48.9,43.0,80,30.28,10.0,NE,6.9,-,N/A,,Clear,40,2013-02-02 06:53:00
2:53 AM,48.0,42.1,80,30.27,10.0,NNE,6.9,-,N/A,,Clear,30,2013-02-02 07:53:00
4:53 AM,46.9,39.0,74,30.27,10.0,NE,5.8,-,N/A,,Clear,50,2013-02-02 09:53:00
5:53 AM,46.0,39.0,76,30.27,10.0,NE,5.8,-,N/A,,Clear,40,2013-02-02 10:53:00
6:53 AM,45.0,37.9,76,30.29,10.0,NE,6.9,-,N/A,,Clear,40,2013-02-02 11:53:00
7:53 AM,46.0,39.0,76,30.29,10.0,NE,6.9,-,N/A,,Clear,40,2013-02-02 12:53:00
8:53 AM,52.0,39.9,63,30.30,10.0,ENE,8.1,-,N/A,,Clear,60,2013-02-02 13:53:00
9:53 AM,59.0,39.9,49,30.30,10.0,ENE,8.1,-,N/A,,Clear,60,2013-02-02 14:53:00
10:53 AM,64.0,37.9,38,30.27,10.0,East,9.2,-,N/A,,Clear,80,2013-02-02 15:53:00
11:53 AM,69.1,35.1,29,30.25,10.0,ENE,6.9,-,N/A,,Clear,70,2013-02-02 16:53:00
12:53 PM,71.1,36.0,28,30.22,10.0,Variable,4.6,-,N/A,,Clear,0,2013-02-02 17:53:00
1:53 PM,70.0,39.9,33,30.19,10.0,WNW,10.4,-,N/A,,Clear,290,2013-02-02 18:53:00
2:53 PM,70.0,39.9,33,30.17,10.0,West,8.1,-,N/A,,Clear,280,2013-02-02 19:53:00
3:53 PM,70.0,42.1,36,30.16,10.0,WNW,8.1,-,N/A,,Clear,300,2013-02-02 20:53:00
4:53 PM,69.1,44.1,40,30.16,10.0,WNW,9.2,-,N/A,,Clear,290,2013-02-02 21:53:00
5:53 PM,64.9,45.0,48,30.16,10.0,NW,8.1,-,N/A,,Clear,310,2013-02-02 22:53:00
6:53 PM,60.1,48.0,64,30.17,10.0,NNW,5.8,-,N/A,,Clear,330,2013-02-02 23:53:00
7:53 PM,57.9,48.9,72,30.17,10.0,NNW,6.9,-,N/A,,Clear,340,2013-02-03 00:53:00
8:53 PM,57.0,48.0,72,30.18,10.0,NNW,6.9,-,N/A,,Clear,340,2013-02-03 01:53:00
9:53 PM,55.9,46.9,72,30.18,10.0,North,4.6,-,N/A,,Clear,350,2013-02-03 02:53:00
10:53 PM,55.0,46.0,72,30.17,10.0,North,3.5,-,N/A,,Clear,10,2013-02-03 03:53:00
11:53 PM,54.0,46.0,75,30.17,10.0,North,3.5,-,N/A,,Clear,360,2013-02-03 04:53:00